Luxor, Egypt

1:39 AM EET on July 24, 2017 (GMT +0200)
Luxor

Weather History for HELX - May, 2013

Change the Weather History Date:

Thursday, May 2, 2013

  Actual Average Record
Temperature  
Mean Temperature 87 °F -  
Max Temperature 103 °F 99 °F 109 °F (2007)
Min Temperature 71 °F 70 °F 64 °F (2008)
Cooling Degree Days 22    
Growing Degree Days 37 (Base 50)    
Moisture  
Dew Point 41 °F    
Average Humidity 18    
Maximum Humidity 27    
Minimum Humidity 7    
Precipitation  
Precipitation 0.00 in 0.00 in - ()
Sea Level Pressure  
Sea Level Pressure 29.69 in    
Wind  
Wind Speed 2 mph ()    
Max Wind Speed 6 mph    
Max Gust Speed -    
Visibility 5.0 miles    
Events      
Averages and records for this station are not official NWS values.
T = Trace of Precipitation, MM = Missing Value Source: Averaged Metar Reports

Daily Weather History Graph

Daily Weather History Graph

Search for Another Location

Airport or City:

Trip Planner

Search our weather history database for the weather conditions in past years. The results will help you decide how hot, cold, wet, or windy it might be!

Date:

Astronomy

May. 02, 2013 Rise Set
Actual Time 5:11 AM EET 6:20 PM EET
Civil Twilight 4:47 AM EET 6:45 PM EET
Nautical Twilight 4:18 AM EET 7:13 PM EET
Astronomical Twilight 3:49 AM EET 7:43 PM EET
Moon No Moon Rise 11:31 AM EET (5/2)
Length of Visible Light 13h 57m
Length of Day
13h 08m
Waning Gibbous, 51% of the Moon is Illuminated
May 2
Waning Gibbous
May 2
Last Quarter
May 10
New
May 18
First Quarter
May 25
Full

Hourly Weather History & Observations

Time (EET) Temp. Dew Point Humidity Pressure Visibility Wind Dir Wind Speed Gust Speed Precip Events Conditions
12:00 AM 82.4 °F 41.0 °F 23% 29.71 in - SSE 1.2 mph - N/A   Clear
1:00 AM 80.6 °F 37.4 °F 21% 29.68 in - South 3.5 mph - N/A   Clear
2:00 AM 78 °F 34 °F 11% 29.69 in 6 mi Calm Calm - -  
2:00 AM 77.0 °F 33.8 °F 21% 29.68 in - Calm Calm - N/A   Clear
3:00 AM 75.2 °F 35.6 °F 24% 29.68 in - Calm Calm - N/A   Clear
4:00 AM 73.4 °F 32.0 °F 22% 29.68 in - Calm Calm - N/A   Clear
5:00 AM 75.2 °F 33.8 °F 22% 29.71 in - ENE 1.2 mph - N/A   Clear
6:00 AM 75.2 °F 33.8 °F 22% 29.74 in - Calm Calm - N/A   Clear
7:00 AM 78.8 °F 33.8 °F 20% 29.74 in - Calm Calm - N/A   Clear
8:00 AM 84 °F 42 °F 14% 29.75 in 6 mi North 3.5 mph - -  
8:00 AM 84.2 °F 42.8 °F 23% 29.74 in - North 3.5 mph - N/A   Clear
9:00 AM 86.0 °F 48.2 °F 27% 29.74 in 2.5 mi Calm Calm - N/A   Haze
10:00 AM 93.2 °F 50.0 °F 23% 29.74 in 3.7 mi ENE 2.3 mph - N/A   Unknown
11:00 AM 98.6 °F 46.4 °F 17% 29.71 in - Calm Calm - N/A   Clear
12:00 PM 100.4 °F 42.8 °F 14% 29.71 in - Calm Calm - N/A   Clear
1:00 PM 100.4 °F 42.8 °F 14% 29.68 in - North 2.3 mph - N/A   Clear
2:00 PM 102 °F 42 °F 7% 29.66 in 6 mi ENE 3.5 mph - -  
2:00 PM 102.2 °F 41.0 °F 12% 29.68 in - ENE 3.5 mph - N/A   Clear
3:00 PM 102.2 °F 44.6 °F 14% 29.65 in - West 3.5 mph - N/A   Clear
4:00 PM 102.2 °F 42.8 °F 13% 29.65 in - WNW 5.8 mph - N/A   Clear
5:00 PM 100.4 °F 44.6 °F 15% 29.65 in - WNW 4.6 mph - N/A   Clear
6:00 PM 96.8 °F 44.6 °F 17% 29.65 in - WSW 3.5 mph - N/A   Clear
7:00 PM 91.4 °F 46.4 °F 21% 29.65 in - West 2.3 mph - N/A   Clear
8:00 PM 89 °F 44 °F 13% 29.66 in 6 mi NW 2.3 mph - -  
8:00 PM 89.6 °F 44.6 °F 21% 29.68 in - NW 2.3 mph - N/A   Clear
9:00 PM 89.6 °F 42.8 °F 20% 29.68 in - East 5.8 mph - N/A   Clear
10:00 PM 87.8 °F 37.4 °F 17% 29.68 in - ESE 3.5 mph - N/A   Clear
11:00 PM 82.4 °F 39.2 °F 21% 29.68 in - Calm Calm - N/A   Clear